QPF
0.01 0.00 0.01 0.01 0.01 0.01 0.00 0.00 0.00 0.00 0.00 0.00 0.00 0.00 0.00 0.00 0.00 0.01 0.01 0.01 0.01 0.02 0.01 0.02 0.02 0.03 0.02 0.02 0.04 0.05 0.05 0.06 0.06 0.08 0.06 0.07 0.08 0.09 0.08 0.11 0.11 0.09 0.08
0.01 0.01 0.01 0.01 0.00 0.00 0.00 0.00 0.00 0.00 0.00 0.00 0.01 0.01 0.01 0.01 0.00 0.00 0.00 0.01 0.01 0.02 0.02 0.02 0.02 0.02 0.03 0.03 0.04 0.05 0.04 0.05 0.08 0.10 0.08 0.06 0.07 0.10 0.10 0.11 0.11 0.11 0.12
0.00 0.00 0.01 0.01 0.01 0.01 0.01 0.01 0.00 0.00 0.00 0.00 0.00 0.01 0.01 0.00 0.01 0.01 0.01 0.01 0.01 0.01 0.02 0.02 0.03 0.02 0.02 0.03 0.03 0.03 0.04 0.04 0.06 0.07 0.09 0.06 0.04 0.05 0.08 0.12 0.15 0.14 0.14
0.01 0.02 0.04 0.03 0.02 0.01 0.02 0.03 0.01 0.00 0.00 0.00 0.00 0.01 0.00 0.00 0.00 0.01 0.01 0.01 0.02 0.02 0.02 0.02 0.02 0.02 0.02 0.02 0.03 0.02 0.04 0.05 0.05 0.05 0.06 0.06 0.04 0.04 0.04 0.09 0.10 0.12 0.15
0.02 0.05 0.08 0.05 0.03 0.01 0.01 0.02 0.01 0.00 0.00 0.00 0.00 0.00 0.01 0.01 0.01 0.01 0.02 0.03 0.03 0.03 0.03 0.02 0.02 0.03 0.04 0.03 0.02 0.03 0.03 0.03 0.04 0.04 0.06 0.07 0.06 0.05 0.04 0.04 0.06 0.07 0.09
0.02 0.04 0.04 0.02 0.02 0.01 0.01 0.01 0.01 0.00 0.00 0.00 0.01 0.01 0.01 0.02 0.02 0.03 0.03 0.03 0.04 0.04 0.08 0.05 0.04 0.06 0.06 0.05 0.03 0.03 0.04 0.04 0.03 0.03 0.04 0.07 0.07 0.06 0.06 0.06 0.06 0.08 0.09
0.01 0.02 0.03 0.03 0.03 0.02 0.01 0.01 0.01 0.01 0.02 0.02 0.02 0.02 0.02 0.02 0.03 0.03 0.03 0.03 0.04 0.05 0.13 0.11 0.10 0.11 0.09 0.07 0.05 0.05 0.04 0.03 0.03 0.03 0.05 0.05 0.06 0.07 0.09 0.11 0.10 0.08 0.06
0.01 0.01 0.02 0.03 0.04 0.04 0.02 0.02 0.02 0.02 0.03 0.03 0.02 0.02 0.03 0.03 0.03 0.03 0.03 0.03 0.04 0.06 0.08 0.09 0.13 0.15 0.14 0.09 0.06 0.04 0.03 0.03 0.03 0.04 0.05 0.05 0.07 0.09 0.11 0.14 0.13 0.09 0.08
0.01 0.01 0.01 0.02 0.06 0.04 0.03 0.02 0.02 0.03 0.04 0.03 0.03 0.03 0.04 0.04 0.04 0.05 0.05 0.04 0.06 0.07 0.08 0.09 0.12 0.13 0.11 0.08 0.06 0.03 0.03 0.04 0.06 0.06 0.06 0.05 0.05 0.07 0.09 0.13 0.14 0.11 0.09
0.01 0.01 0.01 0.02 0.05 0.05 0.02 0.02 0.02 0.03 0.03 0.04 0.03 0.03 0.04 0.04 0.05 0.05 0.04 0.04 0.05 0.07 0.10 0.11 0.13 0.12 0.09 0.06 0.05 0.04 0.05 0.06 0.08 0.08 0.06 0.05 0.06 0.06 0.07 0.09 0.10 0.12 0.11
0.01 0.01 0.01 0.02 0.05 0.05 0.04 0.04 0.05 0.05 0.05 0.05 0.04 0.04 0.05 0.07 0.06 0.04 0.04 0.04 0.05 0.07 0.11 0.08 0.07 0.06 0.06 0.07 0.08 0.07 0.07 0.07 0.07 0.08 0.07 0.05 0.07 0.07 0.07 0.07 0.05 0.08 0.10
0.01 0.01 0.02 0.03 0.05 0.05 0.06 0.07 0.10 0.09 0.08 0.07 0.06 0.05 0.06 0.07 0.06 0.03 0.04 0.04 0.04 0.05 0.07 0.07 0.07 0.07 0.08 0.10 0.08 0.08 0.08 0.07 0.07 0.08 0.09 0.08 0.08 0.07 0.06 0.06 0.05 0.05 0.07
0.01 0.01 0.02 0.02 0.04 0.06 0.08 0.09 0.10 0.09 0.09 0.10 0.09 0.08 0.06 0.06 0.04 0.03 0.03 0.03 0.03 0.03 0.04 0.04 0.06 0.08 0.09 0.10 0.09 0.08 0.07 0.08 0.06 0.07 0.07 0.07 0.06 0.05 0.04 0.05 0.05 0.04 0.05
0.00 0.01 0.02 0.02 0.04 0.06 0.09 0.11 0.09 0.10 0.13 0.15 0.14 0.10 0.05 0.04 0.04 0.04 0.03 0.02 0.01 0.02 0.03 0.04 0.05 0.06 0.06 0.05 0.05 0.06 0.06 0.06 0.08 0.09 0.08 0.06 0.05 0.04 0.05 0.06 0.05 0.03 0.03
0.01 0.01 0.01 0.01 0.02 0.05 0.09 0.13 0.10 0.10 0.11 0.13 0.10 0.07 0.05 0.04 0.03 0.03 0.02 0.02 0.03 0.03 0.04 0.05 0.07 0.08 0.07 0.05 0.05 0.04 0.04 0.07 0.09 0.07 0.07 0.06 0.04 0.04 0.05 0.05 0.04 0.04 0.04
0.02 0.01 0.01 0.02 0.03 0.08 0.09 0.08 0.07 0.07 0.07 0.07 0.05 0.05 0.06 0.05 0.03 0.02 0.03 0.03 0.04 0.06 0.06 0.07 0.11 0.11 0.10 0.09 0.07 0.07 0.07 0.07 0.07 0.07 0.06 0.05 0.05 0.05 0.05 0.04 0.05 0.06 0.06
0.02 0.03 0.03 0.03 0.03 0.03 0.04 0.03 0.03 0.04 0.05 0.06 0.05 0.06 0.07 0.06 0.05 0.04 0.04 0.05 0.07 0.09 0.10 0.11 0.11 0.12 0.13 0.13 0.11 0.10 0.09 0.08 0.07 0.08 0.07 0.07 0.06 0.05 0.04 0.05 0.07 0.08 0.07
0.02 0.04 0.05 0.04 0.04 0.04 0.04 0.05 0.03 0.03 0.04 0.05 0.03 0.04 0.04 0.05 0.05 0.06 0.08 0.09 0.12 0.12 0.13 0.13 0.11 0.11 0.11 0.11 0.10 0.11 0.11 0.13 0.16 0.14 0.11 0.09 0.07 0.05 0.04 0.04 0.04 0.05 0.06
0.02 0.03 0.04 0.04 0.04 0.04 0.05 0.05 0.04 0.03 0.03 0.03 0.03 0.03 0.04 0.05 0.06 0.08 0.09 0.11 0.12 0.11 0.12 0.11 0.10 0.10 0.10 0.10 0.10 0.11 0.12 0.15 0.17 0.13 0.11 0.09 0.07 0.06 0.05 0.04 0.04 0.03 0.03
0.02 0.02 0.03 0.03 0.03 0.04 0.04 0.04 0.03 0.03 0.03 0.03 0.03 0.04 0.06 0.07 0.08 0.08 0.08 0.10 0.10 0.08 0.08 0.07 0.07 0.09 0.08 0.07 0.06 0.07 0.08 0.08 0.09 0.08 0.08 0.08 0.06 0.05 0.05 0.04 0.03 0.03 0.03
0.02 0.01 0.02 0.02 0.02 0.03 0.03 0.03 0.02 0.01 0.01 0.02 0.03 0.05 0.09 0.10 0.10 0.08 0.08 0.08 0.07 0.06 0.05 0.05 0.04 0.06 0.05 0.05 0.08 0.11 0.11 0.09 0.08 0.06 0.05 0.04 0.04 0.04 0.04 0.04 0.03 0.04 0.02
0.02 0.02 0.02 0.03 0.03 0.03 0.02 0.02 0.01 0.01 0.01 0.02 0.03 0.05 0.07 0.09 0.10 0.08 0.06 0.05 0.03 0.03 0.02 0.03 0.02 0.03 0.04 0.06 0.07 0.08 0.09 0.09 0.06 0.04 0.04 0.04 0.05 0.04 0.04 0.03 0.03 0.03 0.02
0.01 0.01 0.02 0.03 0.04 0.03 0.02 0.02 0.02 0.01 0.01 0.02 0.03 0.04 0.06 0.07 0.07 0.07 0.04 0.02 0.01 0.01 0.01 0.02 0.02 0.03 0.03 0.06 0.08 0.08 0.10 0.11 0.08 0.05 0.04 0.04 0.04 0.04 0.03 0.03 0.03 0.02 0.02
0.01 0.01 0.02 0.03 0.04 0.04 0.04 0.03 0.03 0.02 0.02 0.03 0.04 0.04 0.04 0.04 0.04 0.03 0.02 0.01 0.01 0.01 0.01 0.01 0.02 0.04 0.05 0.06 0.06 0.05 0.06 0.07 0.06 0.04 0.04 0.04 0.03 0.03 0.02 0.02 0.02 0.02 0.02
0.02 0.01 0.01 0.02 0.04 0.04 0.03 0.04 0.03 0.03 0.03 0.03 0.04 0.03 0.02 0.02 0.03 0.04 0.04 0.03 0.02 0.01 0.01 0.01 0.03 0.04 0.06 0.06 0.04 0.03 0.02 0.02 0.03 0.03 0.03 0.03 0.02 0.03 0.03 0.03 0.03 0.02 0.02
0.01 0.01 0.01 0.02 0.04 0.05 0.05 0.04 0.03 0.03 0.03 0.03 0.03 0.02 0.01 0.01 0.02 0.03 0.04 0.04 0.02 0.01 0.01 0.01 0.02 0.04 0.05 0.06 0.05 0.03 0.02 0.02 0.01 0.01 0.01 0.01 0.01 0.02 0.02 0.02 0.02 0.02 0.02
MSLP
1012.22 1012.10 1012.06 1012.08 1012.15 1012.27 1012.43 1012.64 1012.88 1013.15 1013.42 1013.69 1013.93 1014.11 1014.22 1014.25 1014.20 1014.08 1013.91 1013.73 1013.54 1013.38 1013.27 1013.21 1013.21 1013.27 1013.37 1013.50 1013.65 1013.81 1013.95 1014.07 1014.16 1014.21 1014.24 1014.23 1014.20 1014.16 1014.12 1014.09 1014.09 1014.13 1014.22
1012.01 1011.97 1012.01 1012.07 1012.16 1012.27 1012.40 1012.57 1012.79 1013.06 1013.38 1013.71 1014.02 1014.29 1014.47 1014.54 1014.50 1014.37 1014.17 1013.93 1013.69 1013.49 1013.34 1013.28 1013.28 1013.34 1013.45 1013.59 1013.73 1013.87 1013.99 1014.09 1014.16 1014.20 1014.22 1014.21 1014.18 1014.13 1014.06 1014.00 1013.95 1013.94 1013.96
1011.66 1011.73 1011.87 1012.02 1012.16 1012.28 1012.40 1012.55 1012.74 1013.01 1013.34 1013.71 1014.08 1014.41 1014.66 1014.79 1014.79 1014.67 1014.47 1014.21 1013.96 1013.74 1013.59 1013.51 1013.50 1013.56 1013.65 1013.76 1013.87 1013.97 1014.06 1014.13 1014.18 1014.22 1014.24 1014.24 1014.22 1014.17 1014.09 1013.99 1013.90 1013.82 1013.78
1011.15 1011.36 1011.63 1011.90 1012.12 1012.28 1012.41 1012.55 1012.72 1012.97 1013.30 1013.68 1014.09 1014.48 1014.78 1014.97 1015.03 1014.96 1014.79 1014.57 1014.33 1014.12 1013.97 1013.89 1013.87 1013.90 1013.95 1014.02 1014.08 1014.14 1014.18 1014.22 1014.26 1014.30 1014.34 1014.36 1014.35 1014.30 1014.22 1014.10 1013.96 1013.82 1013.70
1010.54 1010.88 1011.30 1011.70 1012.02 1012.26 1012.43 1012.56 1012.73 1012.95 1013.26 1013.65 1014.07 1014.49 1014.85 1015.10 1015.23 1015.22 1015.12 1014.95 1014.75 1014.57 1014.44 1014.35 1014.32 1014.31 1014.33 1014.34 1014.35 1014.35 1014.36 1014.37 1014.40 1014.45 1014.50 1014.54 1014.56 1014.54 1014.45 1014.32 1014.14 1013.94 1013.75
1009.89 1010.36 1010.91 1011.45 1011.90 1012.22 1012.44 1012.60 1012.76 1012.97 1013.26 1013.63 1014.05 1014.49 1014.88 1015.18 1015.37 1015.44 1015.41 1015.31 1015.17 1015.03 1014.92 1014.84 1014.78 1014.75 1014.72 1014.68 1014.64 1014.60 1014.57 1014.56 1014.59 1014.64 1014.72 1014.79 1014.83 1014.82 1014.75 1014.61 1014.41 1014.18 1013.94
1009.30 1009.87 1010.55 1011.21 1011.77 1012.19 1012.47 1012.67 1012.83 1013.03 1013.30 1013.65 1014.06 1014.49 1014.90 1015.25 1015.49 1015.62 1015.66 1015.62 1015.54 1015.44 1015.35 1015.28 1015.21 1015.15 1015.08 1015.01 1014.92 1014.85 1014.79 1014.77 1014.80 1014.86 1014.95 1015.04 1015.11 1015.12 1015.06 1014.93 1014.73 1014.48 1014.22
1008.86 1009.50 1010.26 1011.02 1011.68 1012.18 1012.53 1012.76 1012.95 1013.14 1013.40 1013.73 1014.12 1014.55 1014.96 1015.32 1015.60 1015.78 1015.86 1015.88 1015.84 1015.78 1015.71 1015.64 1015.57 1015.50 1015.40 1015.30 1015.19 1015.10 1015.02 1015.00 1015.02 1015.09 1015.18 1015.28 1015.36 1015.38 1015.34 1015.22 1015.04 1014.80 1014.55
1008.62 1009.29 1010.10 1010.92 1011.63 1012.19 1012.60 1012.88 1013.10 1013.32 1013.57 1013.89 1014.27 1014.68 1015.08 1015.44 1015.73 1015.93 1016.05 1016.09 1016.09 1016.05 1016.00 1015.94 1015.87 1015.79 1015.69 1015.58 1015.47 1015.36 1015.28 1015.25 1015.26 1015.32 1015.40 1015.50 1015.57 1015.59 1015.56 1015.46 1015.31 1015.11 1014.90
1008.59 1009.25 1010.07 1010.89 1011.63 1012.23 1012.68 1013.01 1013.27 1013.52 1013.79 1014.12 1014.49 1014.89 1015.28 1015.63 1015.91 1016.11 1016.24 1016.30 1016.31 1016.29 1016.26 1016.21 1016.15 1016.08 1015.99 1015.89 1015.78 1015.68 1015.60 1015.55 1015.55 1015.58 1015.64 1015.70 1015.75 1015.76 1015.73 1015.65 1015.53 1015.38 1015.23
1008.74 1009.37 1010.14 1010.93 1011.66 1012.26 1012.74 1013.11 1013.42 1013.72 1014.03 1014.38 1014.76 1015.16 1015.54 1015.88 1016.15 1016.34 1016.47 1016.54 1016.56 1016.55 1016.54 1016.51 1016.47 1016.42 1016.36 1016.27 1016.18 1016.09 1016.01 1015.95 1015.92 1015.91 1015.92 1015.94 1015.94 1015.92 1015.87 1015.80 1015.72 1015.62 1015.53
1008.98 1009.56 1010.26 1010.99 1011.67 1012.26 1012.75 1013.16 1013.53 1013.88 1014.25 1014.64 1015.05 1015.46 1015.84 1016.18 1016.44 1016.63 1016.75 1016.83 1016.86 1016.88 1016.89 1016.89 1016.88 1016.86 1016.83 1016.77 1016.70 1016.62 1016.54 1016.46 1016.40 1016.34 1016.29 1016.24 1016.19 1016.12 1016.05 1015.98 1015.91 1015.86 1015.82
1009.23 1009.75 1010.37 1011.01 1011.63 1012.18 1012.68 1013.13 1013.55 1013.97 1014.41 1014.86 1015.31 1015.75 1016.14 1016.48 1016.75 1016.95 1017.09 1017.18 1017.24 1017.28 1017.32 1017.36 1017.39 1017.41 1017.41 1017.39 1017.34 1017.27 1017.19 1017.09 1016.98 1016.87 1016.76 1016.65 1016.53 1016.42 1016.31 1016.22 1016.16 1016.13 1016.13
1009.41 1009.86 1010.39 1010.95 1011.50 1012.02 1012.52 1013.00 1013.48 1013.97 1014.48 1014.99 1015.49 1015.97 1016.40 1016.76 1017.05 1017.27 1017.43 1017.55 1017.65 1017.74 1017.83 1017.91 1017.98 1018.04 1018.07 1018.08 1018.05 1017.99 1017.90 1017.78 1017.64 1017.49 1017.32 1017.15 1016.98 1016.82 1016.67 1016.56 1016.49 1016.46 1016.47
1009.42 1009.83 1010.29 1010.78 1011.27 1011.77 1012.27 1012.78 1013.32 1013.88 1014.45 1015.02 1015.58 1016.10 1016.56 1016.96 1017.28 1017.54 1017.75 1017.93 1018.08 1018.22 1018.35 1018.48 1018.60 1018.69 1018.75 1018.78 1018.77 1018.71 1018.62 1018.48 1018.32 1018.14 1017.93 1017.72 1017.51 1017.30 1017.13 1016.99 1016.89 1016.85 1016.85
1009.23 1009.61 1010.03 1010.47 1010.94 1011.42 1011.94 1012.49 1013.08 1013.70 1014.33 1014.96 1015.56 1016.12 1016.62 1017.06 1017.43 1017.74 1018.01 1018.24 1018.46 1018.66 1018.85 1019.02 1019.17 1019.29 1019.37 1019.41 1019.40 1019.34 1019.25 1019.11 1018.94 1018.75 1018.53 1018.30 1018.07 1017.84 1017.64 1017.48 1017.35 1017.28 1017.25
1008.82 1009.20 1009.60 1010.04 1010.50 1011.01 1011.56 1012.16 1012.80 1013.47 1014.15 1014.82 1015.46 1016.05 1016.59 1017.06 1017.48 1017.85 1018.18 1018.48 1018.76 1019.02 1019.26 1019.47 1019.64 1019.77 1019.86 1019.90 1019.89 1019.83 1019.74 1019.61 1019.45 1019.26 1019.05 1018.83 1018.59 1018.37 1018.16 1017.98 1017.83 1017.72 1017.65
1008.19 1008.60 1009.02 1009.48 1009.99 1010.54 1011.15 1011.81 1012.51 1013.22 1013.94 1014.64 1015.30 1015.91 1016.47 1016.98 1017.44 1017.86 1018.25 1018.62 1018.96 1019.27 1019.55 1019.78 1019.97 1020.10 1020.18 1020.21 1020.20 1020.14 1020.05 1019.94 1019.79 1019.63 1019.45 1019.25 1019.03 1018.82 1018.61 1018.42 1018.25 1018.11 1018.00
1007.40 1007.84 1008.32 1008.85 1009.42 1010.06 1010.74 1011.47 1012.23 1012.99 1013.74 1014.45 1015.12 1015.74 1016.32 1016.85 1017.34 1017.81 1018.26 1018.68 1019.07 1019.42 1019.73 1019.98 1020.17 1020.29 1020.35 1020.37 1020.34 1020.28 1020.20 1020.10 1019.98 1019.85 1019.70 1019.53 1019.34 1019.15 1018.95 1018.75 1018.57 1018.41 1018.26
1006.50 1007.01 1007.56 1008.17 1008.84 1009.57 1010.35 1011.16 1011.98 1012.78 1013.55 1014.28 1014.95 1015.58 1016.16 1016.71 1017.23 1017.74 1018.22 1018.69 1019.11 1019.50 1019.82 1020.07 1020.25 1020.36 1020.40 1020.40 1020.36 1020.30 1020.22 1020.14 1020.05 1019.94 1019.82 1019.69 1019.53 1019.35 1019.16 1018.96 1018.77 1018.59 1018.42
1005.60 1006.17 1006.80 1007.51 1008.29 1009.12 1009.99 1010.88 1011.76 1012.61 1013.41 1014.14 1014.82 1015.44 1016.03 1016.59 1017.13 1017.66 1018.18 1018.67 1019.13 1019.53 1019.86 1020.11 1020.28 1020.37 1020.39 1020.37 1020.32 1020.25 1020.18 1020.11 1020.04 1019.96 1019.87 1019.75 1019.60 1019.43 1019.24 1019.04 1018.84 1018.65 1018.48
1004.80 1005.42 1006.13 1006.92 1007.79 1008.72 1009.69 1010.65 1011.59 1012.47 1013.29 1014.03 1014.71 1015.34 1015.93 1016.49 1017.05 1017.59 1018.13 1018.64 1019.12 1019.53 1019.86 1020.11 1020.27 1020.35 1020.36 1020.33 1020.27 1020.21 1020.14 1020.09 1020.02 1019.96 1019.87 1019.75 1019.61 1019.43 1019.23 1019.02 1018.82 1018.63 1018.46
1004.18 1004.84 1005.60 1006.46 1007.41 1008.41 1009.44 1010.46 1011.44 1012.36 1013.19 1013.94 1014.63 1015.25 1015.84 1016.41 1016.98 1017.54 1018.08 1018.61 1019.09 1019.51 1019.85 1020.09 1020.25 1020.32 1020.34 1020.31 1020.25 1020.19 1020.14 1020.08 1020.03 1019.96 1019.87 1019.74 1019.58 1019.39 1019.18 1018.96 1018.75 1018.56 1018.40
1003.84 1004.50 1005.28 1006.18 1007.16 1008.20 1009.27 1010.32 1011.32 1012.25 1013.10 1013.85 1014.54 1015.16 1015.75 1016.33 1016.89 1017.46 1018.02 1018.55 1019.03 1019.45 1019.79 1020.05 1020.21 1020.29 1020.31 1020.30 1020.26 1020.21 1020.16 1020.11 1020.06 1019.98 1019.88 1019.74 1019.56 1019.35 1019.11 1018.88 1018.66 1018.48 1018.34
1003.80 1004.44 1005.21 1006.09 1007.07 1008.11 1009.18 1010.22 1011.22 1012.15 1012.98 1013.74 1014.42 1015.04 1015.63 1016.20 1016.77 1017.34 1017.90 1018.43 1018.92 1019.34 1019.69 1019.95 1020.13 1020.23 1020.28 1020.28 1020.26 1020.23 1020.20 1020.16 1020.10 1020.02 1019.90 1019.74 1019.54 1019.31 1019.06 1018.82 1018.60 1018.42 1018.29
1004.06 1004.65 1005.37 1006.21 1007.14 1008.14 1009.16 1010.17 1011.14 1012.03 1012.84 1013.58 1014.25 1014.86 1015.45 1016.02 1016.59 1017.15 1017.71 1018.24 1018.73 1019.16 1019.52 1019.80 1020.00 1020.13 1020.20 1020.23 1020.24 1020.23 1020.21 1020.18 1020.12 1020.03 1019.90 1019.73 1019.52 1019.27 1019.02 1018.77 1018.55 1018.38 1018.27
Thickness
5814 5814 5813 5811 5806 5801 5797 5794 5790 5787 5784 5780 5776 5772 5769 5769 5768 5767 5766 5765 5763 5761 5759 5758 5756 5755 5754 5752 5752 5750 5748 5747 5748 5745 5743 5746 5749 5749 5748 5747 5745 5743 5742
5812 5813 5812 5810 5806 5802 5799 5795 5792 5789 5786 5783 5779 5775 5772 5770 5769 5768 5766 5765 5764 5762 5760 5758 5756 5756 5754 5752 5751 5750 5747 5747 5747 5743 5737 5734 5737 5744 5748 5746 5745 5744 5742
5816 5814 5811 5809 5807 5804 5801 5798 5794 5791 5788 5785 5780 5777 5772 5770 5768 5766 5765 5765 5764 5763 5761 5759 5757 5756 5754 5752 5751 5750 5747 5744 5745 5745 5739 5731 5727 5733 5741 5744 5745 5744 5743
5821 5817 5813 5810 5808 5807 5805 5800 5796 5793 5790 5786 5781 5775 5769 5765 5766 5766 5766 5766 5765 5763 5762 5760 5758 5756 5755 5753 5752 5751 5749 5746 5742 5743 5743 5741 5738 5731 5730 5737 5741 5742 5741
5823 5818 5817 5814 5812 5810 5807 5802 5798 5794 5792 5788 5783 5777 5772 5770 5769 5768 5766 5765 5764 5763 5762 5760 5758 5757 5755 5754 5753 5751 5750 5747 5744 5742 5742 5740 5738 5736 5729 5727 5733 5736 5739
5825 5822 5820 5816 5813 5811 5808 5804 5799 5795 5793 5789 5784 5779 5774 5770 5768 5766 5764 5764 5763 5763 5762 5760 5758 5757 5755 5754 5753 5751 5749 5748 5746 5744 5742 5739 5736 5733 5731 5728 5728 5729 5734
5826 5822 5817 5814 5813 5811 5808 5805 5800 5795 5793 5790 5785 5782 5777 5773 5770 5767 5765 5763 5762 5761 5761 5760 5758 5756 5755 5753 5752 5750 5748 5747 5745 5743 5742 5741 5739 5738 5735 5731 5728 5728 5730
5827 5824 5822 5819 5816 5814 5811 5806 5801 5797 5794 5790 5786 5783 5779 5775 5773 5771 5768 5766 5764 5763 5762 5761 5759 5758 5756 5754 5752 5749 5748 5746 5745 5744 5742 5741 5740 5739 5737 5733 5728 5724 5724
5827 5825 5824 5822 5820 5817 5814 5809 5803 5798 5794 5791 5787 5783 5780 5777 5774 5772 5770 5768 5766 5764 5762 5761 5759 5757 5755 5753 5751 5749 5747 5745 5743 5742 5741 5740 5740 5739 5738 5736 5732 5725 5718
5825 5825 5825 5824 5823 5821 5817 5812 5806 5801 5796 5793 5789 5785 5781 5779 5776 5772 5770 5768 5766 5765 5763 5760 5758 5756 5754 5752 5750 5748 5746 5744 5742 5741 5739 5738 5738 5738 5737 5735 5733 5730 5724
5824 5825 5824 5824 5822 5820 5815 5810 5805 5800 5796 5793 5789 5785 5781 5779 5776 5773 5770 5768 5766 5764 5762 5760 5757 5755 5752 5751 5748 5745 5743 5741 5739 5738 5736 5735 5735 5734 5733 5732 5730 5727 5723
5823 5824 5822 5820 5817 5814 5811 5808 5804 5799 5796 5793 5788 5784 5781 5777 5774 5772 5770 5768 5765 5763 5760 5758 5755 5753 5751 5748 5745 5742 5740 5738 5736 5734 5733 5732 5732 5730 5729 5727 5726 5723 5721
5817 5816 5815 5813 5812 5810 5807 5805 5802 5799 5796 5792 5788 5783 5779 5776 5773 5771 5769 5767 5764 5761 5758 5755 5752 5750 5747 5745 5742 5739 5737 5735 5733 5732 5729 5728 5727 5724 5723 5722 5720 5719 5717
5810 5809 5807 5807 5807 5807 5804 5802 5800 5798 5795 5790 5786 5781 5778 5775 5772 5770 5767 5764 5761 5758 5755 5752 5749 5747 5744 5741 5738 5735 5733 5731 5729 5728 5727 5725 5723 5720 5719 5717 5715 5714 5710
5802 5803 5802 5802 5802 5802 5800 5799 5796 5795 5792 5787 5782 5779 5777 5774 5770 5767 5764 5761 5758 5755 5752 5749 5746 5743 5740 5737 5734 5731 5729 5726 5724 5723 5722 5721 5719 5717 5715 5713 5710 5708 5704
5796 5797 5798 5798 5798 5798 5796 5794 5792 5790 5788 5782 5779 5776 5772 5769 5766 5763 5760 5757 5754 5751 5748 5744 5741 5738 5736 5734 5732 5729 5725 5723 5720 5718 5717 5715 5713 5712 5710 5709 5706 5704 5699
5793 5792 5792 5792 5793 5793 5793 5790 5789 5787 5783 5779 5774 5771 5768 5764 5761 5759 5755 5751 5748 5745 5741 5739 5736 5733 5731 5730 5728 5725 5721 5718 5716 5713 5711 5710 5708 5706 5704 5702 5699 5697 5695
5789 5788 5788 5787 5788 5789 5789 5788 5785 5782 5778 5774 5770 5767 5764 5760 5757 5753 5749 5747 5744 5740 5736 5732 5730 5727 5726 5724 5722 5720 5716 5712 5710 5708 5705 5702 5700 5699 5697 5694 5691 5688 5686
5787 5785 5785 5784 5784 5784 5783 5780 5776 5774 5771 5767 5765 5763 5760 5756 5752 5748 5744 5741 5738 5734 5730 5726 5723 5721 5718 5717 5716 5714 5710 5706 5703 5701 5699 5697 5694 5692 5690 5686 5682 5679 5677
5782 5780 5780 5779 5778 5777 5776 5772 5769 5766 5763 5762 5760 5758 5755 5751 5747 5743 5740 5736 5732 5728 5724 5719 5717 5714 5712 5710 5709 5707 5703 5698 5695 5692 5691 5688 5687 5685 5682 5678 5675 5671 5668
5774 5773 5772 5770 5769 5769 5768 5764 5762 5760 5759 5758 5756 5753 5750 5746 5743 5739 5734 5730 5726 5721 5716 5712 5709 5707 5705 5703 5701 5699 5695 5692 5688 5685 5681 5679 5678 5676 5673 5670 5667 5664 5661
5765 5765 5763 5761 5761 5762 5760 5756 5754 5754 5754 5751 5748 5745 5742 5740 5737 5733 5728 5724 5720 5714 5709 5705 5701 5698 5696 5694 5692 5690 5688 5686 5681 5677 5674 5671 5669 5667 5664 5661 5659 5656 5653
5756 5756 5754 5752 5752 5752 5752 5748 5746 5747 5745 5742 5738 5735 5733 5730 5727 5724 5720 5716 5712 5707 5702 5697 5693 5689 5687 5685 5683 5681 5679 5676 5673 5669 5667 5664 5661 5658 5655 5652 5649 5646 5643
5746 5746 5745 5743 5741 5742 5743 5741 5740 5739 5736 5732 5728 5725 5722 5719 5716 5713 5710 5707 5703 5699 5694 5690 5685 5681 5678 5676 5674 5671 5669 5667 5664 5661 5657 5654 5651 5648 5645 5641 5638 5635 5631
5737 5736 5735 5734 5733 5733 5733 5733 5732 5731 5726 5723 5719 5716 5712 5709 5704 5700 5697 5695 5693 5691 5688 5684 5680 5675 5670 5667 5666 5663 5660 5657 5655 5651 5647 5643 5639 5636 5633 5630 5626 5623 5620
5727 5726 5726 5725 5724 5725 5724 5724 5724 5723 5719 5714 5711 5707 5703 5699 5695 5691 5686 5684 5683 5682 5680 5678 5674 5669 5665 5662 5659 5656 5652 5649 5647 5642 5636 5631 5628 5625 5621 5618 5615 5613 5609